Location: Erlenbrunn
(49.1717°N, 7.6142°E)
Time: 14:58:53
(UTC+00:00)

Cosmos 1606 - Visible Passes

Search period start: 20 April 2021 00:00
Search period end: 30 April 2021 00:00
Orbit: 502 x 527 km, 82.5° (Epoch: 19 April)

Date Brightness Start Highest point End Pass type
(mag) Time Alt. Az. Time Alt. Az. Time Alt. Az.
20 Apr 5.0 21:03:03 13° ENE 21:03:03 13° ENE 21:03:52 10° NE visible
20 Apr 4.4 22:38:01 31° NNW 22:38:01 31° NNW 22:40:25 10° N visible
21 Apr 5.0 20:47:31 12° ENE 20:47:31 12° ENE 20:48:09 10° NE visible
21 Apr 4.1 22:22:29 37° NNW 22:22:29 37° NNW 22:25:07 10° N visible
22 Apr 5.1 20:31:58 10° ENE 20:31:58 10° ENE 20:32:13 10° ENE visible
22 Apr 3.6 22:06:56 46° NNW 22:06:56 46° NNW 22:09:47 10° N visible
23 Apr 3.2 21:51:21 57° N 21:51:21 57° N 21:54:26 10° N visible
24 Apr 2.8 21:35:44 68° NNE 21:35:44 68° NNE 21:39:05 10° N visible
25 Apr 2.6 21:20:06 70° ENE 21:20:06 70° ENE 21:23:42 10° NNE visible
25 Apr 5.5 22:55:03 10° W 22:56:08 11° WNW 22:57:23 10° NW visible
26 Apr 2.6 21:04:25 57° ESE 21:04:35 58° E 21:08:17 10° NNE visible
26 Apr 5.4 22:39:22 12° W 22:40:40 13° WNW 22:42:35 10° NW visible
27 Apr 2.9 20:48:42 43° ESE 20:49:13 47° E 20:52:51 10° NNE visible
27 Apr 5.2 22:23:39 13° W 22:25:13 16° WNW 22:27:34 10° NNW visible
28 Apr 3.2 20:32:58 32° SE 20:33:53 38° E 20:37:24 10° NNE visible
28 Apr 5.1 22:07:54 14° WSW 22:09:45 18° WNW 22:12:27 10° NNW visible
29 Apr 3.5 20:17:10 24° SE 20:18:32 32° E 20:21:55 10° NNE visible
29 Apr 4.9 21:52:07 14° WSW 21:54:18 22° WNW 21:57:17 10° NNW visible
